軌道要素
Epoch 2015 Oct. 25.0 TT = JDT 2457320.5
T 2015 Nov. 3.43941 TT MPCW
q 3.3946625 (2000.0) P Q
n 0.01275733 Peri. 176.32294 +0.18326886 -0.85314153
a 18.1396745 Node 262.63572 +0.88891317 +0.35599246
e 0.8128598 Incl. 29.50441 +0.41981650 -0.38133830
P 77.26
From 588 observations 2014 Dec. 22-2017 Mar. 24, mean residual 0".4.
|